{"data":{"norad_id":56081,"intl_designator":"2023-043AM","name":"ONEWEB-0718","alt_names":[],"object_type":"PAYLOAD","status":"ACTIVE","operator":null,"country":"UK","launch_date":"2023-03-26","launch_site_code":"SRILR","launch_vehicle":null,"mission":null,"orbit_class":"UNKNOWN","rcs_meters":null,"size_class":null,"mass_kg":null,"dimensions":null,"purposes":["comms"],"wikipedia_slug":null,"has_3d_model":false,"image_url":null,"decayed_at":null,"tle_current":{"epoch":"2026-09-20T04:29:41.093952Z","epoch_age_seconds":49041,"freshness":"FRESH","line1":"1 56081U 23043AM  26263.18728118 -.00000046  00000+0 -15645-3 0  9992","line2":"2 56081  87.8995 240.2607 0001536  88.7170 271.4137 13.15549330168920","mean_motion":13.1554933,"eccentricity":0.0001536,"inclination_deg":87.8995,"raan_deg":240.2607,"arg_perigee_deg":88.717,"mean_anomaly_deg":271.4137,"bstar":-0.00015645,"rev_number":16892,"period_min":109.45997745292,"perigee_km":1200.603497962,"apogee_km":1202.9320447077,"semimajor_km":7579.9047713349,"source":"CELESTRAK","updated_at":"2026-09-20T09:00:44.794051Z"}}}